Location: Round Knob
(37.2473°N, 88.7376°W)
Time: 10:53:35
(UTC+00:00)

OAO 2 Rocket - Pass Details

Date: 29 October 2020
Orbit: 676 x 745 km, 35.0° (Epoch: 04 December)

Event Time Altitude Azimuth Distance (km) Brightness Sun altitude
Rises 23:35:02 0° 257° (WSW) 3,077 9.3 -7.6°
Reaches altitude 10° 23:37:29 10° 255° (WSW) 2,148 7.6 -8.1°
Maximum altitude 23:42:27 65° 174° (S) 751 3.5 -9.1°
Enters shadow 23:46:57 12° 93° (E) 1,966 5.0 -10.0°
